Wind_Speed
19 20 21 20 19 19 21 22 23 24 27 27 28 29 30 30 30 30 29 30 30 29 29 29 29 29 29 29 28 29 29 28 28 29 29 30 30 31 31 30 30 30 29 28
22 21 21 22 22 22 22 22 24 26 27 28 29 29 30 30 30 30 30 30 29 29 28 28 28 29 29 28 28 28 29 28 28 28 28 28 29 28 29 30 30 30 29 28
21 21 21 22 21 21 22 23 25 27 27 29 30 30 29 29 30 30 30 30 29 28 27 27 27 27 28 28 28 28 28 27 28 28 29 29 29 28 28 29 28 28 28 28
20 20 21 21 22 23 24 25 26 27 28 28 29 29 28 29 29 29 29 29 29 28 27 27 27 27 28 28 28 28 28 27 28 28 28 29 29 29 29 29 29 30 29 28
20 20 20 21 22 23 24 26 27 27 27 27 28 28 28 27 28 28 27 28 28 28 28 27 27 28 28 29 29 29 28 28 28 28 28 29 30 30 30 30 30 31 30 29
21 22 22 24 25 24 24 26 26 26 26 26 27 27 27 27 27 26 27 27 28 29 28 28 28 28 29 29 29 28 28 28 29 29 30 30 30 30 31 31 31 30 30 29
22 23 24 25 24 23 25 26 26 26 25 26 27 28 28 28 27 27 28 28 28 28 28 28 29 29 29 29 29 29 28 28 29 29 29 30 30 30 31 31 30 30 30 30
22 23 25 25 24 24 25 26 25 26 26 27 27 27 27 28 28 28 28 28 28 28 28 29 29 29 29 29 29 29 28 28 28 28 28 29 29 29 30 31 31 31 31 31
23 24 24 25 25 25 25 26 25 26 27 27 27 26 27 28 28 28 28 27 27 27 27 28 28 28 28 29 28 28 28 28 28 28 29 29 29 29 29 30 30 30 30 29
23 23 24 25 26 27 27 27 27 27 27 27 27 27 28 28 28 28 28 27 27 27 27 27 27 27 27 27 27 28 28 28 28 29 29 29 29 29 29 29 29 29 29 29
24 24 25 25 26 27 27 27 28 27 27 27 28 28 28 28 27 27 27 27 27 28 28 28 28 28 28 28 28 28 28 29 29 29 29 29 28 29 29 28 29 29 29 29
25 25 26 26 26 26 27 27 27 28 27 27 27 28 28 27 27 26 26 26 27 27 28 28 28 28 28 28 28 29 29 29 29 29 28 28 27 27 27 28 28 28 29 29
26 26 26 26 26 26 26 26 27 27 27 27 27 27 27 27 27 26 26 26 26 27 27 27 27 27 27 27 28 28 27 27 27 27 27 26 26 26 26 26 26 26 27 28
26 26 26 26 26 26 26 27 27 27 27 27 27 27 27 26 26 26 26 27 27 27 27 27 27 27 27 28 28 27 27 26 26 25 25 25 25 25 24 24 24 24 24 25
27 27 27 27 27 27 27 27 27 27 27 27 26 26 26 26 25 26 26 27 27 27 27 28 28 28 28 28 28 27 27 26 25 25 25 25 24 23 22 22 23 22 22 23
26 27 27 27 27 27 27 27 28 27 27 27 26 26 26 26 26 26 26 27 27 27 27 28 28 28 28 27 27 27 26 26 26 25 24 24 23 23 22 22 22 22 22 22
25 25 26 27 26 26 27 28 28 28 27 27 27 26 26 26 27 27 27 27 27 27 27 28 28 28 27 28 28 27 27 26 25 25 24 24 23 22 22 21 21 21 21 21
24 25 25 25 26 26 26 27 27 26 26 27 27 26 26 27 27 27 27 27 27 27 27 27 27 27 27 27 27 26 26 26 25 24 24 24 24 23 22 21 20 20 19 19
23 24 25 25 26 26 26 26 26 26 26 26 26 26 26 27 27 27 27 27 27 27 27 27 27 27 27 27 27 26 25 24 23 23 23 23 23 22 22 21 21 20 19 19
23 24 24 25 25 26 26 26 26 26 26 26 26 26 26 26 26 26 26 26 27 26 26 26 26 26 26 26 25 24 23 23 22 22 22 22 22 21 21 20 19 19 19 18
22 23 23 24 24 25 25 25 25 25 25 25 25 26 26 26 26 26 26 26 25 25 25 26 25 25 25 24 23 23 22 21 21 21 21 20 20 19 19 18 18 19 18 18
21 21 21 22 22 23 24 24 24 24 25 25 24 24 25 25 25 25 25 25 24 23 24 24 24 24 24 22 22 21 20 20 19 19 19 19 18 17 17 17 17 17 17 17
20 20 20 20 20 20 22 22 23 23 22 22 22 23 23 24 24 23 23 23 22 22 23 23 23 22 21 20 19 18 18 18 17 17 17 17 17 16 16 16 16 15 15 16
20 20 19 19 19 20 20 21 20 20 20 21 21 22 22 22 22 22 22 21 21 21 21 21 21 20 19 18 17 16 16 16 16 16 16 16 16 16 16 16 16 16 16 16
20 19 19 19 18 18 19 19 19 19 19 20 20 21 21 21 21 21 21 21 20 20 20 19 19 18 17 17 16 16 16 15 15 15 16 15 15 15 15 15 15 15 15 15
18 18 18 18 18 18 18 19 19 19 19 19 20 20 20 20 20 20 20 20 19 19 18 18 17 17 16 16 16 16 15 15 15 16 15 14 14 14 15 15 15 15 16 16
18 18 18 18 19 19 18 18 18 19 19 19 19 19 19 19 19 18 18 18 17 16 16 17 17 17 16 15 15 15 14 14 14 15 15 14 14 14 15 14 14 15 16 16
Wind_Direction
245 247 248 255 258 255 256 254 256 260 262 265 270 274 277 281 284 288 290 290 291 291 290 290 289 288 288 285 282 279 279 278 276 273 273 273 274 275 274 275 276 276 275 275
245 248 249 254 256 259 257 255 258 262 264 266 270 274 278 282 284 285 287 289 290 292 292 291 290 289 288 287 285 282 280 278 277 275 274 274 275 275 275 275 275 273 272 274
254 254 253 254 258 260 261 262 262 265 267 268 271 277 280 282 284 285 287 290 291 292 292 292 291 291 291 289 288 285 282 280 278 277 276 276 275 276 278 278 278 276 273 273
256 256 258 260 262 261 263 264 265 269 272 274 277 280 281 282 284 287 288 289 289 289 291 291 291 291 292 290 289 288 284 281 279 278 276 274 275 276 278 279 279 277 275 273
257 259 261 264 265 265 265 267 269 272 274 276 279 281 283 286 287 286 287 289 290 289 291 290 291 291 291 290 289 289 287 284 280 278 277 276 277 277 278 279 279 277 275 273
256 259 260 263 266 268 268 270 273 275 276 277 279 281 284 286 288 291 291 290 289 290 290 290 290 289 290 291 290 290 288 285 283 281 279 277 276 276 277 277 277 275 274 274
260 260 261 264 266 268 267 272 275 276 276 278 279 281 284 285 287 289 291 291 291 291 290 291 291 289 288 289 288 289 288 287 285 283 282 280 278 277 276 275 274 274 274 274
263 262 261 266 269 269 271 274 276 277 278 280 282 283 284 285 286 288 290 291 291 292 292 292 292 291 289 288 288 287 287 287 287 285 283 282 281 279 275 273 274 275 275 274
265 265 266 268 270 271 272 275 278 279 280 280 281 283 284 284 285 287 289 290 291 293 294 295 294 293 291 290 288 288 287 287 287 287 285 283 281 279 276 275 275 275 274 273
266 265 267 268 269 271 274 277 278 280 281 282 284 285 285 285 285 286 288 290 292 293 293 293 294 294 294 293 291 290 289 288 288 288 287 284 281 280 279 277 275 274 273 272
266 268 269 271 272 275 277 279 281 281 282 283 285 286 287 287 287 287 288 290 292 293 293 294 294 293 293 293 293 292 291 290 290 289 288 287 285 282 279 276 276 276 274 273
266 269 271 273 274 277 279 281 283 284 284 283 284 285 287 288 288 288 289 290 292 293 294 294 293 292 292 294 294 294 293 290 290 289 288 287 286 284 283 280 279 276 273 272
268 270 272 274 276 279 280 282 284 285 286 286 285 286 287 288 288 289 290 291 292 293 294 294 293 292 292 294 297 297 295 293 291 289 288 288 287 285 284 283 282 279 275 273
269 271 271 273 276 278 280 282 284 286 287 287 287 287 288 288 288 289 290 291 292 293 294 294 292 291 292 294 296 297 296 294 293 291 289 288 287 287 287 285 283 281 277 275
271 272 272 273 275 278 280 281 283 285 287 286 287 288 288 288 289 290 292 293 293 293 294 294 294 292 293 293 294 294 294 293 292 291 288 288 288 288 289 286 284 282 279 276
272 273 273 273 275 276 279 281 282 283 283 285 286 287 288 289 290 291 292 292 292 292 293 294 294 294 293 293 293 294 294 293 292 289 288 288 287 288 288 287 286 283 281 279
274 275 275 276 276 277 279 280 282 282 282 283 286 287 287 288 290 291 291 291 291 291 292 293 294 294 294 294 293 293 294 292 290 288 288 289 288 288 287 287 287 285 283 282
275 277 277 277 277 278 279 280 282 282 283 284 285 287 288 289 290 291 291 291 290 290 292 293 293 294 295 295 295 295 294 292 290 289 287 288 287 286 286 288 288 287 285 284
279 279 279 278 277 278 279 280 281 283 285 285 285 287 289 289 290 291 291 290 291 291 291 291 293 295 296 296 296 296 294 293 291 290 289 289 288 286 285 285 285 285 284 283
282 283 282 279 278 279 280 281 281 283 284 285 285 287 289 290 291 291 291 290 291 291 290 292 294 296 298 297 297 296 294 293 291 289 290 290 289 288 286 285 283 284 286 285
285 286 284 282 281 281 282 283 283 282 283 285 286 287 289 290 291 290 291 291 291 290 291 293 295 297 297 296 295 295 294 293 291 290 289 289 288 287 286 284 282 283 284 285
286 287 286 286 286 284 284 285 284 284 284 285 287 288 290 290 289 290 290 291 291 291 291 292 295 298 297 294 294 294 293 292 290 290 289 288 285 284 285 282 280 281 282 284
287 289 289 288 288 286 286 288 288 286 286 288 289 289 291 291 291 291 291 290 288 289 293 295 297 298 296 293 292 292 292 292 291 289 289 290 289 287 286 283 282 282 284 285
288 288 289 290 289 288 288 288 288 287 287 289 290 292 293 292 291 292 293 293 290 291 293 296 297 298 297 294 292 289 290 292 291 290 289 289 289 286 285 285 285 285 286 286
286 286 288 290 289 290 290 290 289 289 288 287 291 295 296 294 293 294 292 290 291 292 293 296 298 297 297 295 292 289 290 292 293 293 290 288 289 288 287 288 286 284 283 282
284 286 287 288 289 290 291 292 292 293 294 292 293 295 294 294 294 293 292 290 290 291 292 295 297 296 296 295 294 292 289 289 290 292 292 290 290 290 289 287 287 287 285 282
282 284 287 289 289 290 291 292 292 293 296 295 294 296 296 296 295 295 295 294 293 293 294 296 296 295 295 294 292 292 290 290 291 292 293 292 291 289 288 287 289 290 289 288
Height
5821 5823 5824 5824 5825 5826 5826 5827 5828 5827 5825 5824 5823 5821 5820 5818 5816 5814 5813 5811 5808 5806 5804 5801 5799 5797 5795 5793 5792 5790 5789 5788 5788 5788 5788 5787 5787 5787 5787 5787 5787 5787 5786 5786
5816 5817 5818 5819 5820 5820 5820 5820 5820 5819 5819 5818 5816 5815 5814 5812 5810 5808 5806 5804 5802 5799 5797 5795 5792 5790 5788 5786 5784 5783 5782 5780 5780 5780 5780 5779 5779 5779 5778 5778 5778 5778 5778 5778
5810 5811 5812 5813 5814 5814 5814 5813 5813 5812 5812 5811 5809 5808 5807 5805 5803 5801 5799 5797 5794 5792 5790 5787 5785 5783 5780 5779 5777 5776 5775 5773 5772 5772 5772 5772 5771 5771 5771 5770 5770 5770 5770 5770
5805 5806 5807 5809 5807 5807 5807 5807 5806 5806 5805 5804 5803 5801 5800 5798 5796 5794 5792 5789 5787 5785 5783 5781 5778 5776 5774 5772 5770 5769 5767 5766 5765 5764 5764 5764 5763 5763 5762 5762 5762 5762 5762 5762
5799 5799 5801 5802 5800 5800 5801 5800 5799 5799 5798 5797 5796 5794 5792 5791 5789 5786 5784 5783 5780 5778 5776 5774 5772 5769 5767 5765 5763 5761 5760 5758 5757 5757 5756 5755 5755 5755 5754 5754 5753 5753 5753 5753
5793 5794 5794 5795 5794 5794 5795 5793 5792 5792 5791 5790 5789 5788 5786 5784 5782 5779 5778 5776 5774 5771 5769 5767 5765 5762 5760 5758 5756 5754 5752 5751 5750 5749 5748 5747 5746 5746 5746 5745 5745 5745 5744 5745
5786 5787 5787 5787 5787 5788 5788 5787 5786 5785 5784 5783 5782 5781 5779 5777 5776 5774 5772 5770 5767 5765 5762 5760 5757 5755 5753 5750 5748 5746 5744 5743 5741 5740 5739 5738 5738 5737 5737 5736 5736 5736 5736 5737
5780 5780 5782 5780 5780 5781 5781 5779 5778 5777 5777 5776 5775 5773 5772 5770 5768 5766 5764 5762 5760 5758 5755 5753 5750 5747 5745 5743 5741 5739 5737 5735 5734 5732 5731 5730 5729 5728 5728 5728 5728 5727 5727 5728
5774 5775 5774 5774 5773 5773 5773 5773 5772 5771 5770 5769 5768 5766 5765 5763 5761 5759 5757 5755 5753 5751 5748 5745 5742 5740 5738 5735 5733 5731 5729 5728 5726 5724 5723 5722 5721 5720 5719 5719 5718 5718 5718 5718
5767 5767 5767 5767 5767 5766 5766 5766 5765 5764 5763 5762 5760 5759 5757 5756 5754 5752 5750 5748 5746 5743 5741 5738 5736 5733 5731 5728 5725 5723 5721 5720 5718 5716 5715 5714 5712 5712 5711 5711 5710 5710 5709 5709
5760 5761 5761 5760 5760 5760 5759 5759 5758 5757 5756 5755 5753 5752 5750 5748 5746 5745 5743 5741 5738 5736 5733 5731 5728 5726 5723 5721 5718 5716 5714 5712 5710 5708 5707 5706 5704 5703 5702 5702 5702 5701 5701 5701
5754 5754 5754 5754 5754 5753 5753 5752 5751 5750 5749 5747 5746 5744 5742 5741 5739 5737 5735 5733 5731 5729 5726 5723 5721 5718 5716 5714 5711 5709 5706 5704 5702 5700 5699 5698 5696 5695 5694 5694 5693 5692 5692 5692
5748 5748 5747 5747 5747 5746 5745 5745 5743 5742 5741 5739 5738 5736 5735 5733 5732 5730 5728 5726 5724 5721 5719 5716 5713 5711 5709 5707 5704 5701 5699 5696 5694 5693 5691 5690 5689 5687 5686 5686 5684 5684 5683 5683
5741 5740 5740 5740 5739 5738 5738 5737 5736 5735 5733 5732 5730 5729 5727 5726 5724 5722 5721 5718 5716 5714 5711 5708 5705 5703 5701 5699 5697 5694 5691 5689 5687 5685 5684 5682 5681 5680 5679 5678 5677 5676 5675 5675
5733 5733 5733 5732 5732 5731 5730 5729 5728 5727 5726 5724 5723 5721 5720 5718 5717 5715 5713 5711 5708 5706 5703 5701 5698 5696 5694 5691 5689 5687 5684 5682 5680 5678 5676 5675 5674 5673 5671 5670 5669 5669 5668 5668
5725 5725 5725 5724 5724 5723 5722 5722 5721 5720 5718 5717 5716 5714 5712 5711 5709 5707 5705 5703 5701 5698 5696 5693 5691 5688 5686 5684 5681 5679 5677 5675 5673 5671 5670 5668 5667 5666 5665 5663 5662 5662 5661 5661
5717 5717 5717 5716 5716 5715 5714 5713 5712 5712 5710 5709 5708 5707 5705 5703 5701 5700 5698 5696 5693 5691 5688 5686 5683 5681 5678 5676 5673 5671 5670 5668 5666 5664 5663 5661 5660 5659 5658 5657 5656 5655 5654 5654
5710 5709 5708 5708 5707 5707 5706 5705 5704 5703 5702 5701 5700 5699 5697 5695 5693 5692 5690 5688 5685 5683 5681 5678 5676 5673 5671 5669 5666 5664 5662 5660 5658 5657 5656 5655 5653 5652 5651 5650 5649 5648 5648 5647
5702 5701 5700 5700 5699 5698 5698 5697 5696 5695 5694 5693 5692 5690 5689 5687 5685 5684 5681 5679 5678 5676 5673 5671 5669 5667 5664 5661 5659 5656 5654 5652 5651 5650 5648 5647 5646 5645 5644 5643 5642 5642 5641 5641
5695 5694 5693 5692 5691 5691 5690 5689 5688 5687 5686 5685 5684 5682 5681 5679 5678 5676 5673 5671 5670 5668 5666 5663 5661 5659 5657 5654 5651 5649 5647 5646 5644 5643 5642 5640 5639 5638 5637 5636 5636 5636 5635 5635
5688 5687 5686 5685 5684 5683 5682 5681 5680 5679 5678 5677 5676 5675 5673 5672 5670 5668 5666 5664 5662 5660 5658 5656 5654 5652 5649 5647 5645 5643 5641 5639 5638 5637 5635 5634 5633 5632 5631 5631 5630 5630 5629 5629
5682 5681 5679 5678 5677 5676 5675 5674 5673 5672 5671 5670 5668 5667 5665 5664 5662 5660 5658 5657 5655 5653 5651 5649 5647 5645 5642 5640 5638 5637 5635 5634 5632 5631 5629 5628 5627 5626 5625 5625 5625 5624 5624 5623
5676 5675 5673 5672 5671 5670 5668 5667 5666 5665 5663 5662 5661 5660 5658 5656 5654 5653 5651 5649 5648 5646 5644 5642 5640 5638 5636 5634 5632 5631 5629 5628 5627 5626 5624 5623 5622 5622 5621 5621 5620 5619 5619 5618
5670 5669 5667 5666 5665 5664 5663 5661 5660 5658 5657 5656 5655 5653 5651 5649 5647 5646 5643 5641 5640 5640 5638 5636 5634 5632 5630 5628 5627 5626 5624 5623 5622 5621 5620 5619 5618 5618 5617 5616 5616 5615 5614 5614
5664 5663 5662 5661 5659 5658 5657 5656 5655 5653 5652 5650 5649 5647 5645 5642 5641 5639 5637 5636 5635 5633 5632 5630 5629 5627 5625 5624 5622 5621 5620 5619 5618 5617 5616 5615 5614 5613 5612 5612 5611 5611 5610 5609
5658 5657 5656 5655 5654 5653 5652 5650 5649 5647 5646 5644 5643 5641 5639 5637 5635 5633 5631 5630 5628 5627 5626 5625 5623 5622 5621 5619 5618 5617 5615 5614 5613 5612 5612 5611 5610 5609 5608 5608 5607 5606 5605 5605
5653 5652 5651 5650 5649 5648 5646 5645 5643 5641 5640 5638 5637 5635 5633 5631 5629 5628 5626 5624 5623 5622 5621 5620 5619 5617 5616 5615 5614 5612 5611 5610 5610 5609 5608 5607 5606 5605 5604 5604 5603 5602 5601 5600